WIF82L ENBR-ENSG

Flight info

Callsign WIF82L
Flight time 0h 27m
Altitude 17000
Route INTUM
Aircraft DH8A/M-V/N

Departure

Time 2026-04-24 09:17
Airport Bergen Airport, Flesland (ENBR)

Arrival

Time 2026-04-24 09:44
Airport Sogndal Airport, Haukåsen (ENSG)
Time Latitude Longitude Altitude Speed Heading
2026-04-24 08:59 60.28358 5.22686 173 ft 0 kts 123°
2026-04-24 09:14 60.28356 5.22690 173 ft 1 kts 139°
2026-04-24 09:15 60.28336 5.22668 173 ft 6 kts 226°
2026-04-24 09:15 60.28323 5.22636 173 ft 5 kts 233°
2026-04-24 09:15 60.28318 5.22621 173 ft 2 kts 235°
2026-04-24 09:15 60.28298 5.22543 173 ft 10 kts 250°
2026-04-24 09:16 60.28279 5.22389 173 ft 12 kts 262°
2026-04-24 09:16 60.28280 5.22224 173 ft 12 kts 286°
2026-04-24 09:16 60.28325 5.22154 173 ft 8 kts 348°
2026-04-24 09:16 60.28541 5.22080 173 ft 76 kts 351°
2026-04-24 09:17 60.29373 5.21805 232 ft 158 kts 351°
2026-04-24 09:17 60.30492 5.21467 1297 ft 160 kts 344°
2026-04-24 09:17 60.31598 5.21195 2549 ft 163 kts 348°
2026-04-24 09:17 60.32782 5.21017 3477 ft 182 kts 349°
2026-04-24 09:18 60.34111 5.20808 4022 ft 197 kts 349°
2026-04-24 09:18 60.35024 5.20636 4320 ft 201 kts 348°
2026-04-24 09:18 60.36949 5.20184 5044 ft 218 kts 348°
2026-04-24 09:18 60.37965 5.19908 5424 ft 227 kts 347°
2026-04-24 09:19 60.39596 5.19754 5934 ft 249 kts
2026-04-24 09:19 60.41311 5.20868 6729 ft 262 kts 24°
2026-04-24 09:19 60.43504 5.23070 8092 ft 269 kts 30°
2026-04-24 09:19 60.45167 5.24899 9108 ft 274 kts 31°
2026-04-24 09:20 60.46305 5.26158 9797 ft 277 kts 32°
2026-04-24 09:20 60.48581 5.28645 11086 ft 284 kts 32°
2026-04-24 09:20 60.49746 5.29898 11724 ft 287 kts 32°
2026-04-24 09:20 60.51525 5.31782 12653 ft 291 kts 32°
2026-04-24 09:21 60.53298 5.33887 13643 ft 292 kts 26°
2026-04-24 09:21 60.54868 5.36276 15186 ft 269 kts 28°
2026-04-24 09:21 60.56262 5.38814 16279 ft 274 kts 37°
2026-04-24 09:21 60.56621 5.39654 16514 ft 277 kts 40°
2026-04-24 09:22 60.57774 5.42755 17018 ft 296 kts 45°
2026-04-24 09:22 60.58980 5.46271 17196 ft 306 kts 46°
2026-04-24 09:22 60.60187 5.49842 17293 ft 306 kts 46°
2026-04-24 09:22 60.61402 5.53381 17320 ft 304 kts 45°
2026-04-24 09:23 60.62616 5.56822 17322 ft 301 kts 44°
2026-04-24 09:23 60.63863 5.60262 17324 ft 308 kts 44°
2026-04-24 09:23 60.65087 5.63489 17331 ft 331 kts 43°
2026-04-24 09:23 60.66579 5.67283 17332 ft 354 kts 43°
2026-04-24 09:24 60.68169 5.71247 17329 ft 364 kts 43°
2026-04-24 09:24 60.69753 5.75197 17323 ft 354 kts 43°
2026-04-24 09:24 60.71285 5.79050 17320 ft 345 kts 43°
2026-04-24 09:24 60.72776 5.82828 17320 ft 339 kts 43°
2026-04-24 09:25 60.74254 5.86582 17133 ft 339 kts 43°
2026-04-24 09:25 60.75731 5.90335 16838 ft 338 kts 43°
2026-04-24 09:25 60.77199 5.94065 16537 ft 334 kts 43°
2026-04-24 09:25 60.78651 5.97760 16236 ft 331 kts 43°
2026-04-24 09:26 60.80072 6.01375 15890 ft 329 kts 43°
2026-04-24 09:26 60.81508 6.05022 15469 ft 327 kts 43°
2026-04-24 09:26 60.82931 6.08634 15044 ft 324 kts 43°
2026-04-24 09:26 60.84342 6.12211 14616 ft 320 kts 43°
2026-04-24 09:27 60.85734 6.15739 14190 ft 316 kts 43°
2026-04-24 09:27 60.87112 6.19230 13764 ft 313 kts 43°
2026-04-24 09:27 60.88476 6.22681 13338 ft 309 kts 43°
2026-04-24 09:27 60.89827 6.26100 12912 ft 306 kts 43°
2026-04-24 09:28 60.91130 6.29430 12517 ft 299 kts 43°
2026-04-24 09:28 60.92393 6.32740 12378 ft 281 kts 43°
2026-04-24 09:28 60.93543 6.35770 12323 ft 264 kts 43°
2026-04-24 09:28 60.94653 6.38728 12317 ft 253 kts 43°
2026-04-24 09:29 60.95723 6.41524 12244 ft 251 kts 43°
2026-04-24 09:29 60.96820 6.44306 12212 ft 250 kts 43°
2026-04-24 09:29 60.97923 6.47082 12205 ft 251 kts 43°
2026-04-24 09:29 60.99036 6.49886 12207 ft 252 kts 43°
2026-04-24 09:30 61.00140 6.52714 12205 ft 253 kts 44°
2026-04-24 09:30 61.01606 6.56498 12183 ft 255 kts 44°
2026-04-24 09:30 61.02339 6.58395 12167 ft 255 kts 44°
2026-04-24 09:30 61.03449 6.61268 12117 ft 256 kts 44°
2026-04-24 09:31 61.04566 6.64158 11950 ft 259 kts 44°
2026-04-24 09:31 61.05691 6.67061 11775 ft 259 kts 44°
2026-04-24 09:31 61.06811 6.69960 11591 ft 257 kts 44°
2026-04-24 09:31 61.07928 6.72851 11342 ft 257 kts 44°
2026-04-24 09:32 61.09035 6.75720 11090 ft 254 kts 44°
2026-04-24 09:32 61.10127 6.78561 10840 ft 250 kts 44°
2026-04-24 09:32 61.11199 6.81360 10588 ft 246 kts 44°
2026-04-24 09:32 61.12253 6.84121 10338 ft 243 kts 44°
2026-04-24 09:33 61.13295 6.86857 10086 ft 241 kts 44°
2026-04-24 09:33 61.14320 6.89567 9834 ft 238 kts 45°
2026-04-24 09:33 61.15320 6.92238 9586 ft 236 kts 44°
2026-04-24 09:33 61.16339 6.94942 9333 ft 234 kts 44°
2026-04-24 09:34 61.17328 6.97567 9102 ft 232 kts 44°
2026-04-24 09:34 61.18308 7.00179 8953 ft 228 kts 44°
2026-04-24 09:34 61.19275 7.02770 8824 ft 226 kts 44°
2026-04-24 09:34 61.20245 7.05327 8701 ft 225 kts 44°
2026-04-24 09:35 61.21218 7.07862 8576 ft 225 kts 45°
2026-04-24 09:35 61.22184 7.10417 8450 ft 225 kts 45°
2026-04-24 09:35 61.23144 7.12980 8326 ft 225 kts 45°
2026-04-24 09:35 61.24103 7.15542 8202 ft 225 kts 45°
2026-04-24 09:36 61.25060 7.18108 8077 ft 224 kts 45°
2026-04-24 09:36 61.26014 7.20673 7950 ft 224 kts 45°
2026-04-24 09:36 61.26966 7.23237 7826 ft 223 kts 45°
2026-04-24 09:36 61.27896 7.25750 7703 ft 222 kts 45°
2026-04-24 09:37 61.28842 7.28310 7578 ft 222 kts 45°
2026-04-24 09:37 61.29779 7.30851 7453 ft 221 kts 45°
2026-04-24 09:37 61.30549 7.33671 7328 ft 226 kts 58°
2026-04-24 09:37 61.31226 7.36637 7149 ft 227 kts 57°
2026-04-24 09:38 61.31595 7.39844 6959 ft 238 kts 85°
2026-04-24 09:38 61.31158 7.43203 6741 ft 247 kts 116°
2026-04-24 09:38 61.30054 7.45928 6575 ft 246 kts 136°
2026-04-24 09:38 61.28628 7.47748 6441 ft 236 kts 165°
2026-04-24 09:39 61.27085 7.47862 6388 ft 211 kts 200°
2026-04-24 09:39 61.25832 7.46617 6355 ft 193 kts 221°
2026-04-24 09:39 61.24743 7.45032 6253 ft 191 kts 226°
2026-04-24 09:39 61.23795 7.43042 5824 ft 194 kts 240°
2026-04-24 09:40 61.23076 7.40803 5426 ft 182 kts 248°
2026-04-24 09:40 61.22492 7.38668 5150 ft 157 kts 251°
2026-04-24 09:40 61.21973 7.36796 4901 ft 143 kts 251°
2026-04-24 09:40 61.21486 7.35062 4631 ft 136 kts 250°
2026-04-24 09:41 61.21050 7.33392 4391 ft 126 kts 251°
2026-04-24 09:41 61.20652 7.31821 4152 ft 121 kts 249°
2026-04-24 09:41 61.20283 7.30295 3936 ft 115 kts 249°
2026-04-24 09:41 61.19952 7.28842 3801 ft 110 kts 249°
2026-04-24 09:42 61.19630 7.27386 3614 ft 112 kts 247°
2026-04-24 09:42 61.19267 7.25943 3426 ft 114 kts 241°
2026-04-24 09:42 61.18819 7.24556 3220 ft 116 kts 237°
2026-04-24 09:42 61.18355 7.23146 2972 ft 120 kts 238°
2026-04-24 09:43 61.17903 7.21686 2700 ft 121 kts 240°
2026-04-24 09:43 61.17477 7.20224 2502 ft 118 kts 240°
2026-04-24 09:43 61.17051 7.18748 2310 ft 120 kts 241°
2026-04-24 09:43 61.16633 7.17276 2109 ft 119 kts 240°
2026-04-24 09:44 61.16210 7.15825 1861 ft 116 kts 240°
2026-04-24 09:44 61.15812 7.14436 1656 ft 106 kts 239°
2026-04-24 09:44 61.15517 7.13404 1642 ft 50 kts 239°
2026-04-24 09:44 61.15381 7.12929 1642 ft 19 kts 239°
2026-04-24 09:45 61.15345 7.12782 1642 ft 4 kts 211°
2026-04-24 09:45 61.15341 7.12817 1642 ft 9 kts 58°
2026-04-24 09:45 61.15413 7.13052 1642 ft 29 kts 58°
2026-04-24 09:45 61.15532 7.13458 1642 ft 33 kts 58°
2026-04-24 09:46 61.15616 7.13694 1642 ft 12 kts
2026-04-24 09:46 61.15692 7.13611 1642 ft 12 kts 326°
2026-04-24 09:46 61.15728 7.13622 1642 ft 2 kts 93°
2026-04-24 09:46 61.15726 7.13640 1642 ft 1 kts 108°
2026-04-24 09:47 61.15725 7.13643 1642 ft 0 kts 108°